Location: *
(53.9002°N, 27.5624°E)
Time: 05:00:48
(UTC+00:00)

Ariane Rocket - Pass Details

Date: 12 November 2019
Orbit: 759 x 771 km, 98.7° (Epoch: 07 December)

Event Time Altitude Azimuth Distance (km) Brightness Sun altitude
Exits shadow 15:44:55 14° 109° (ESE) 2,074 4.7 -13.0°
Maximum altitude 15:48:25 27° 57° (ENE) 1,439 3.9 -13.5°
Drops below altitude 10° 15:52:40 10° 1° (N) 2,320 5.4 -14.1°
Sets 15:55:15 0° 350° (N) 3,249 6.3 -14.4°
